sat.trackr.live / text

‹ back to catalog

STARLINK-11651 [DTC]

NORAD 63664 · 2025-085A

PAYLOAD ACTIVE UNKNOWN

§ Identity

Operator
Country
US
Launch date
2025-04-28
Launch site
AFETR
Launch vehicle
Mass (kg)
RCS (m²)

Purposes: comms

External: N2YO · Heavens-Above · Gunter

§ Orbital elements

Epoch: 2026-05-25T02:28:18.019776Z

Period
91.66 min
Inclination
43.0003°
Eccentricity
0.0001927
Mean motion
15.70985671 rev/d
Perigee alt
354.8 km
Apogee alt
357.4 km
Semi-major
6,734.2 km
B*
1.8493e-3
RAAN
177.4684°
Arg perigee
257.5514°
Mean anomaly
102.5138°
Rev number
6,227

§ Raw data

STARLINK-11651 [DTC]1 63664U 25085A   26145.10298634  .00245487  00000+0  18493-2 0  99922 63664  43.0003 177.4684 0001927 257.5514 102.5138 15.70985671 62278

JSON: /api/v1/satellites/63664 · /tle

For live sub-satellite position, see the globe view (requires WebGL).

§ Visibility from observer

Set your observer location to see the next 7 days of passes ≥ 10°. The values pass through the URL so the page stays shareable.

No JS? Fill the form by hand. The geolocation button needs JavaScript.